Location: Innsbruck
(47.2657°N, 11.3914°E)
Time: 02:30:22
(UTC+02:00)

Nauka - Pass Details

Date: 24 September 2021
Orbit: 418 x 423 km, 51.6° (Epoch: 14 October)

Event Time Altitude Azimuth Distance (km) Brightness Sun altitude
Rises 20:53:28 0° 281° (W) 2,364 ? -18.4°
Reaches altitude 10° 20:55:40 10° 290° (WNW) 1,501 ? -18.8°
Maximum altitude 20:58:50 37° 360° (N) 672 ? -19.3°
Enters shadow 20:59:31 33° 29° (NNE) 731 ? -19.4°
